EW3230 Weather Reports


Display with metric or nautical units.
time (UTC)temp
F
wind
direction
speed
MPH
gust
MPH
rain 1hr
in
rain 24hr
in
rain mn
in
humidity
%
barometer
mb
20260831021615 70 247 0.0 1.0 0.01 0.01 0.01 65 1017.6
20260831021117 71 248 0.0 2.0 0.00 0.00 0.00 67 1017.8
20260831020114 71 224 0.0 1.0 0.00 0.00 0.00 67 1017.8
20260831015117 71 212 0.0 1.0 0.00 0.00 0.00 67 1017.5
20260831013614 71 210 0.0 1.0 0.00 0.00 0.00 67 1017.7
20260831012613 71 232 0.0 1.0 0.00 0.00 0.00 66 1017.5
20260831011615 71 232 0.0 1.0 0.00 0.00 0.00 66 1017.6
20260831010613 71 270 0.0 1.0 0.00 0.00 0.00 66 1017.5
20260831010117 71 242 0.0 1.0 0.00 0.00 0.00 67 1017.4
20260831004613 71 218 0.0 1.0 0.00 0.00 0.00 68 1017.5
20260831003616 72 225 0.0 1.0 0.00 0.00 0.00 70 1017.5
20260831002614 72 268 0.0 1.0 0.00 0.00 0.00 71 1017.4
20260831001615 72 215 0.0 1.0 0.00 0.00 0.00 73 1017.3
20260831000614 73 211 0.0 1.0 0.00 0.00 0.00 73 1017.2
20260830235614 73 212 0.0 1.0 0.00 0.00 0.00 74 1017.1
20260830235117 73 219 0.0 1.0 0.00 0.00 0.00 75 1017.0
20260830234115 73 257 0.0 1.0 0.00 0.00 0.00 75 1017.3
20260830233117 73 228 0.0 1.0 0.00 0.00 0.00 75 1017.0
20260830231620 74 256 0.0 1.0 0.00 0.00 0.00 75 1017.1
20260830231615 74 225 0.0 1.0 0.00 0.00 0.00 75 1017.1
20260830230115 74 172 0.0 1.0 0.00 0.00 0.00 74 1017.1
20260830224615 75 235 0.0 1.0 0.00 0.00 0.00 73 1017.3
20260830223615 75 215 0.0 1.0 0.00 0.00 0.00 72 1017.4
20260830223115 75 219 0.0 1.0 0.00 0.00 0.00 71 1017.4
20260830221616 76 217 0.0 1.0 0.00 0.00 0.00 70 1017.5
20260830220614 76 221 0.0 1.0 0.00 0.00 0.00 70 1017.3
20260830215614 76 212 0.0 1.0 0.00 0.00 0.00 70 1017.4
20260830214615 76 210 0.0 1.0 0.00 0.00 0.00 69 1017.5
20260830214115 77 206 0.0 1.0 0.00 0.00 0.00 68 1017.5
20260830213116 77 208 0.0 1.0 0.00 0.00 0.00 65 1017.5
20260830211615 78 245 0.0 1.0 0.00 0.00 0.00 63 1017.5
20260830210616 78 207 0.0 1.0 0.00 0.00 0.00 61 1017.5
20260830205614 79 220 0.0 1.0 0.00 0.00 0.00 59 1017.5
20260830204615 79 242 0.0 1.0 0.00 0.00 0.00 61 1017.5
20260830203614 79 240 0.0 1.0 0.00 0.00 0.00 59 1017.6
20260830202614 80 226 0.0 3.0 0.00 0.00 0.00 58 1017.5
20260830201615 81 246 1.0 7.0 0.00 0.00 0.00 59 1017.5
20260830200614 81 212 0.0 5.0 0.00 0.00 0.00 58 1017.6
20260830195616 82 221 0.0 3.0 0.00 0.00 0.00 62 1017.7
20260830194625 82 263 0.0 1.0 0.00 0.00 0.00 62 1017.7
20260830193614 81 210 0.0 1.0 0.00 0.00 0.00 60 1017.9
20260830192633 83 207 0.0 2.0 0.00 0.00 0.00 60 1017.9
20260830192626 82 234 0.0 3.0 0.00 0.00 0.00 59 1018.0
20260830191114 83 226 0.0 3.0 0.00 0.00 0.00 56 1018.1
20260830190115 83 245 1.0 4.0 0.00 0.00 0.00 53 1018.2
20260830184614 84 225 1.0 4.0 0.00 0.00 0.00 49 1018.3
20260830183614 84 248 1.0 5.0 0.00 0.00 0.00 50 1018.4
20260830182616 84 243 1.0 4.0 0.00 0.00 0.00 49 1018.5
20260830181613 84 110 1.0 8.0 0.00 0.00 0.00 50 1018.6
20260830180617 83 277 1.0 8.0 0.00 0.00 0.00 52 1018.8
20260830175614 83 215 1.0 6.0 0.00 0.00 0.00 52 1018.9
20260830175115 83 321 2.0 8.0 0.00 0.00 0.00 51 1019.0
20260830173614 83 155 1.0 6.0 0.00 0.00 0.00 51 1019.0
20260830172614 83 141 1.0 6.0 0.00 0.00 0.00 53 1019.1
20260830171614 82 210 2.0 7.0 0.00 0.00 0.00 52 1019.2
20260830171115 82 278 0.0 5.0 0.00 0.00 0.00 53 1019.2
20260830170727 82 86 1.0 3.0 0.00 0.00 0.00 58 1019.4
20260830164615 82 209 0.0 6.0 0.00 0.00 0.00 54 1019.3
20260830163614 82 240 1.0 5.0 0.00 0.00 0.00 57 1019.3
20260830162615 81 224 1.0 5.0 0.00 0.00 0.00 56 1019.4
20260830161616 81 205 1.0 4.0 0.00 0.00 0.00 57 1019.4
20260830160615 80 214 0.0 2.0 0.00 0.00 0.00 59 1019.6
20260830155615 79 225 1.0 5.0 0.00 0.00 0.00 59 1019.8
20260830154616 80 285 0.0 4.0 0.00 0.00 0.00 58 1019.9
20260830153615 80 200 1.0 4.0 0.00 0.00 0.00 60 1019.8
20260830152614 79 246 0.0 5.0 0.00 0.00 0.00 60 1020.0
20260830151613 78 265 0.0 4.0 0.00 0.00 0.00 62 1020.2
20260830150614 78 252 0.0 5.0 0.00 0.00 0.00 62 1020.4
20260830145614 78 226 0.0 4.0 0.00 0.00 0.00 63 1020.5
20260830145116 78 248 0.0 2.0 0.00 0.00 0.00 64 1020.6
20260830143613 78 244 0.0 4.0 0.00 0.00 0.00 64 1020.7
20260830142612 77 298 0.0 3.0 0.00 0.00 0.00 68 1020.7
20260830142113 76 242 0.0 2.0 0.00 0.00 0.00 70 1020.7
20260830140612 75 242 0.0 1.0 0.00 0.00 0.00 72 1020.9
20260830135615 75 256 0.0 1.0 0.00 0.00 0.00 73 1020.9
20260830134611 74 263 0.0 0.0 0.00 0.00 0.00 74 1021.1
20260830133613 73 263 0.0 1.0 0.00 0.00 0.00 74 1021.2
20260830132610 72 159 0.0 1.0 0.00 0.00 0.00 75 1021.3
20260830131611 71 159 0.0 2.0 0.00 0.00 0.00 74 1021.4
20260830130605 70 249 0.0 3.0 0.00 0.00 0.00 73 1021.4
20260830125603 69 101 0.0 0.0 0.00 0.00 0.00 72 1021.4
20260830124611 66 129 0.0 1.0 0.00 0.00 0.00 64 1021.7
20260830124605 67 101 0.0 1.0 0.00 0.00 0.00 67 1021.5
20260830123107 64 50 0.0 1.0 0.00 0.00 0.00 63 1021.7
20260830121605 63 89 0.0 1.0 0.00 0.00 0.00 62 1021.7
20260830120603 63 200 0.0 0.0 0.00 0.00 0.00 63 1021.6
20260830115604 62 200 0.0 0.0 0.00 0.00 0.00 62 1021.6
20260830115106 62 203 0.0 1.0 0.00 0.00 0.00 62 1021.7
20260830113605 61 195 0.0 1.0 0.00 0.00 0.00 62 1021.6
20260830112603 61 195 0.0 0.0 0.00 0.00 0.00 62 1021.6
20260830112104 60 195 0.0 0.0 0.00 0.00 0.00 62 1021.4
20260830110601 59 195 0.0 0.0 0.00 0.00 0.00 63 1021.5
20260830105600 59 195 0.0 0.0 0.00 0.00 0.00 63 1021.5
20260830104601 58 195 0.0 0.0 0.00 0.00 0.00 63 1021.7
20260830103558 58 195 0.0 0.0 0.00 0.00 0.00 63 1021.7
20260830102557 58 195 0.0 0.0 0.00 0.00 0.00 63 1021.7
20260830101600 57 195 0.0 0.0 0.00 0.00 0.00 64 1021.5
20260830100557 57 195 0.0 0.0 0.00 0.00 0.00 64 1021.6
20260830095557 57 195 0.0 0.0 0.00 0.00 0.00 65 1021.6
20260830094559 58 195 0.0 0.0 0.00 0.00 0.00 65 1021.7
20260830093553 58 195 0.0 0.0 0.00 0.00 0.00 64 1021.7
20260830092553 58 195 0.0 0.0 0.00 0.00 0.00 64 1021.8
20260830091552 58 195 0.0 0.0 0.00 0.00 0.00 64 1021.9
20260830090553 58 195 0.0 0.0 0.00 0.00 0.00 64 1021.8
20260830090054 58 195 0.0 0.0 0.00 0.00 0.00 64 1022.0
20260830084551 58 195 0.0 0.0 0.00 0.00 0.00 64 1022.2
20260830083553 58 195 0.0 0.0 0.00 0.00 0.00 64 1022.2
20260830082553 58 195 0.0 0.0 0.00 0.00 0.00 64 1022.3
20260830081552 58 195 0.0 0.0 0.00 0.00 0.00 65 1022.2
20260830081047 58 195 0.0 0.0 0.00 0.00 0.00 65 1022.2
20260830075546 58 195 0.0 0.0 0.00 0.00 0.00 65 1022.2
20260830074547 58 195 0.0 0.0 0.00 0.00 0.00 65 1022.0
20260830074048 58 195 0.0 0.0 0.00 0.00 0.00 65 1021.9
20260830072546 58 195 0.0 0.0 0.00 0.00 0.00 65 1021.9
20260830071545 58 195 0.0 0.0 0.00 0.00 0.00 65 1021.8
20260830070547 58 195 0.0 0.0 0.00 0.00 0.00 65 1021.9
20260830065546 58 195 0.0 0.0 0.00 0.00 0.00 65 1022.0
20260830064545 59 195 0.0 0.0 0.00 0.00 0.00 65 1022.0
20260830063540 59 195 0.0 0.0 0.00 0.00 0.00 65 1022.1
20260830063053 59 195 0.0 0.0 0.00 0.00 0.00 64 1022.0
20260830061539 59 195 0.0 0.0 0.00 0.00 0.00 64 1022.1
20260830060540 59 195 0.0 0.0 0.00 0.00 0.00 64 1022.0
20260830055539 59 195 0.0 0.0 0.00 0.00 0.00 64 1022.0
20260830054541 59 195 0.0 0.0 0.00 0.00 0.00 64 1021.9
20260830053540 59 195 0.0 0.0 0.00 0.00 0.00 64 1021.8
20260830052540 59 195 0.0 0.0 0.00 0.00 0.00 64 1022.0
20260830052041 59 195 0.0 0.0 0.00 0.00 0.00 64 1022.0
20260830051037 60 195 0.0 0.0 0.00 0.00 0.00 64 1022.0
20260830050033 60 195 0.0 0.0 0.00 0.00 0.00 64 1021.9
20260830044532 60 195 0.0 0.0 0.00 0.00 0.00 64 1022.0
20260830043533 60 195 0.0 0.0 0.00 0.00 0.00 64 1022.1
20260830042537 60 195 0.0 0.0 0.00 0.00 0.00 65 1022.1
20260830042533 60 195 0.0 0.0 0.00 0.00 0.00 65 1022.1
20260830040532 60 195 0.0 0.0 0.00 0.00 0.00 65 1022.0
20260830040032 60 195 0.0 0.0 0.00 0.00 0.00 66 1021.8
20260830034542 60 195 0.0 0.0 0.00 0.00 0.00 66 1021.8
20260830033525 61 195 0.0 0.0 0.00 0.00 0.00 66 1021.8
20260830032524 61 195 0.0 0.0 0.00 0.00 0.00 67 1021.9
20260830031524 61 195 0.0 0.0 0.00 0.00 0.00 67 1021.9
20260830030523 61 195 0.0 0.0 0.00 0.00 0.00 67 1021.9
20260830025525 62 195 0.0 0.0 0.00 0.00 0.00 68 1021.9
20260830025027 62 195 0.0 0.0 0.00 0.00 0.00 69 1022.0
20260830023527 62 195 0.0 0.0 0.00 0.00 0.00 69 1022.0
20260830022524 63 195 0.0 0.0 0.00 0.00 0.00 69 1022.0